Tracking 19562 objects as of 25-Mar-2019
HD Live streaming from Space Station
objects crossing your sky now

FENGYUN 1C DEB

Track FENGYUN 1C DEB now!
10-day predictions


NORAD ID: 30411
Int'l Code: 1999-025AEA
Perigee: 814.4 km
Apogee: 1,033.1 km
Inclination: 98.5 °
Period: 103.3 minutes
Semi major axis: 7294 km
RCS: 0.03 m2 (small)
Launch date: May 10, 1999
Source: People's Republic of China (PRC)
Launch site: Taiyaun Space Center, China (TSC)

Note: This is SATELLITE DEBRIS
aabbcc
Your satellite tracking list
Your tracking list is empty




NASA's NSSDC Master Catalog

Two Line Element Set (TLE):
1 30411U 99025AEA 19082.11541625  .00000494  00000-0  37021-3 0  9992
2 30411  98.5432 129.9438 0149904 121.8002 239.7860 13.93443018616924
Source of the keplerian elements: AFSPC